This is the latest recevied weather packets stored in our database for station/object SP1BMW-13. If no packets are shown the sender has not sent any weather packets the latest 10 day(s).
| Time | Temp. | Humidity | Pressure | Rain* | Wind** | Luminosity | Snow |
|---|---|---|---|---|---|---|---|
| 1778305805 | 10° C | 70% | 1021.2 hPa | 0 mm | 0 m/s | 164 W/m² | - |
| 1778305745 | 10° C | 69% | 1021.2 hPa | 0 mm | 0.45 m/s, 299° | 162 W/m² | - |
| 1778305685 | 10° C | 69% | 1021.2 hPa | 0 mm | 0.45 m/s, 305° | 160 W/m² | - |
| 1778305625 | 10° C | 69% | 1021.3 hPa | 0 mm | 0 m/s | 158 W/m² | - |
| 1778305565 | 10° C | 70% | 1021.3 hPa | 0 mm | 0 m/s | 156 W/m² | - |
| 1778305505 | 10° C | 69% | 1021.3 hPa | 0 mm | 0 m/s | 154 W/m² | - |
| 1778305444 | 10° C | 68% | 1021.4 hPa | 0 mm | 0.45 m/s, 328° | 152 W/m² | - |
| 1778305385 | 9.44° C | 68% | 1021.4 hPa | 0 mm | 0.45 m/s, 344° | 150 W/m² | - |
| 1778305325 | 9.44° C | 70% | 1021.4 hPa | 0 mm | 0 m/s | 147 W/m² | - |
| 1778305265 | 9.44° C | 70% | 1021.2 hPa | 0 mm | 0 m/s | 145 W/m² | - |
| 1778305205 | 9.44° C | 70% | 1021.3 hPa | 0 mm | 0 m/s | 143 W/m² | - |
| 1778305145 | 9.44° C | 71% | 1021.1 hPa | 0 mm | 0.45 m/s, 41° | 141 W/m² | - |
| 1778305085 | 9.44° C | 73% | 1021.1 hPa | 0 mm | 0 m/s | 138 W/m² | - |
| 1778305025 | 8.89° C | 71% | 1021.3 hPa | 0 mm | 0.45 m/s, 345° | 135 W/m² | - |
| 1778304965 | 8.89° C | 72% | 1021.4 hPa | 0 mm | 0.45 m/s, 6° | 133 W/m² | - |
| 1778304905 | 8.89° C | 72% | 1021.3 hPa | 0 mm | 0 m/s | 131 W/m² | - |
| 1778304845 | 8.89° C | 72% | 1021.2 hPa | 0 mm | 0 m/s | 128 W/m² | - |
| 1778304785 | 8.89° C | 71% | 1021.3 hPa | 0 mm | 0 m/s | 125 W/m² | - |
| 1778304725 | 8.89° C | 71% | 1021.3 hPa | 0 mm | 0.45 m/s, 330° | 123 W/m² | - |
| 1778304665 | 8.89° C | 72% | 1021.2 hPa | 0 mm | 0 m/s | 120 W/m² | - |
| 1778304605 | 8.33° C | 74% | 1021.1 hPa | 0 mm | 0 m/s | 117 W/m² | - |
| 1778304545 | 8.33° C | 74% | 1021.2 hPa | 0 mm | 0 m/s | 114 W/m² | - |
| 1778304485 | 8.33° C | 74% | 1021.3 hPa | 0 mm | 0 m/s | 112 W/m² | - |
| 1778304425 | 8.33° C | 74% | 1021.1 hPa | 0 mm | 0.45 m/s, 7° | 109 W/m² | - |
| 1778304365 | 8.33° C | 73% | 1021.1 hPa | 0 mm | 0.45 m/s, 316° | 106 W/m² | - |
* Rain latest hour (hover to see other rain measurements)
** Current wind speed in m/s (hover to see current wind gust speed)